Location: Unspecified
(38.5482°N, 1.4063°W)
Time: 12:59:16
(UTC+00:00)

Tiangong - Visible Passes

Search period start: 27 February 2024 00:00
Search period end: 08 March 2024 00:00
Orbit: 375 x 385 km, 41.5° (Epoch: 26 February)

Date Brightness Start Highest point End Pass type
(mag) Time Alt. Az. Time Alt. Az. Time Alt. Az.
27 Feb -1.2 19:12:03 10° SW 19:14:51 31° SSE 19:14:57 31° SSE visible
28 Feb -0.7 19:47:13 10° WSW 19:49:12 36° WSW 19:49:12 36° WSW visible
29 Feb -1.9 18:46:07 10° SW 18:49:09 52° SSE 18:51:09 19° E visible
29 Feb 1.2 20:22:52 10° W 20:23:17 13° W 20:23:17 13° W visible
01 Mar -2.0 19:21:29 10° W 19:24:34 67° NNW 19:25:05 53° NE visible
02 Mar -0.2 19:57:03 10° WNW 19:58:53 29° WNW 19:58:53 29° WNW visible
03 Mar -1.7 18:55:29 10° W 18:58:33 52° N 19:00:28 20° ENE visible
03 Mar 1.5 20:32:26 10° WNW 20:32:34 11° WNW 20:32:34 11° WNW visible
04 Mar -1.6 19:30:53 10° WNW 19:33:54 46° N 19:34:02 46° NNE visible
05 Mar -1.5 18:29:12 10° W 18:32:13 46° N 18:35:15 10° ENE visible
05 Mar 0.1 20:06:02 10° WNW 20:07:32 25° WNW 20:07:32 25° WNW visible
06 Mar -1.8 19:04:22 10° WNW 19:07:25 52° N 19:08:52 26° ENE visible
07 Mar -2.1 19:39:20 10° WNW 19:42:16 77° W 19:42:16 77° W visible
